HAWK-B

Last updated on Tue Sep 22 2026 00:03:52 GMT+0000 (Coordinated Universal Time)

1 43794U 18099AN 26264.14310324 .00003713 00000+0 15535-3 0 9997 2 43794 97.3867 314.3517 0030264 328.8089 31.1351 15.23788317427648
UTC large
Height (km)
Speed (km/s)
/
Latitude / Longitude
Inclination (degrees)
Orbital Period (minutes)
Azimuth
Elevation
Range (km)
Doppler Factor

Next 0 passes for location: London (51.5072 / 0.1276)

No passes found over London.
HAWK-B